STARLINK BE

Last updated on June 19, 2020, 12:02 a.m. UTC

1 45782U 20038BE  20170.75001157  .00114856  11276-4  14222-3 0  9995
2 45782  52.9996 271.8067 0111258  69.5307 148.1140 15.96202586  1955

Satellite is not in orbit.